Weather History for PPIZ - September, 2013

Change the Weather History Date:

Sunday, September 8, 2013

  Actual Average Record
Temperature  
Mean Temperature 37 °F -  
Max Temperature 43 °F 40 °F 52 °F (2010)
Min Temperature 32 °F 34 °F 26 °F (2008)
Degree Days  
Heating Degree Days 28    
Moisture  
Dew Point 34 °F    
Average Humidity 91    
Maximum Humidity 100    
Minimum Humidity 76    
Precipitation  
Precipitation 0.00 in - - ()
Sea Level Pressure  
Sea Level Pressure 29.80 in    
Wind  
Wind Speed 10 mph (NE)    
Max Wind Speed 15 mph    
Max Gust Speed -    
Visibility 8 miles    
Events      
Averages and records for this station are not official NWS values.
T = Trace of Precipitation, MM = Missing Value Source: NWS Daily Summary

Daily Weather History Graph

Daily Weather History Graph

Search for Another Location

Airport or City:

Trip Planner

Search our weather history database for the weather conditions in past years. The results will help you decide how hot, cold, wet, or windy it might be!

Date:

Astronomy

Sep. 08, 2013 Rise Set
Actual Time 7:39 AM AKDT 9:56 PM AKDT
Civil Twilight 6:32 AM AKDT 11:02 PM AKDT
Nautical Twilight 4:50 AM AKDT 12:41 AM AKDT
Astronomical Twilight Sun does not rise Sun does not rise
Moon 1:38 PM AKDT (9/8) 9:04 PM AKDT (9/8)
Length of Visible Light 16h 30m
Length of Day
14h 17m
Waxing Crescent, 12% of the Moon is Illuminated
Sep 8
Waxing Crescent
Sep 12
First Quarter
Sep 19
Full
Sep 26
Last Quarter
Oct 4
New

Hourly Weather History & Observations

Time (AKDT) Temp. Windchill Dew Point Humidity Pressure Visibility Wind Dir Wind Speed Gust Speed Precip Events Conditions
12:56 AM 36.9 °F 30.1 °F 32.9 °F 86% 29.88 in 10.0 mi NNE 9.2 mph - N/A   Overcast
1:48 AM 35.6 °F 28.6 °F 33.8 °F 93% 29.85 in 10.0 mi NNE 9.2 mph - N/A   Overcast
1:56 AM 36.0 °F 29.6 °F 34.0 °F 93% 29.86 in 10.0 mi NE 8.1 mph - N/A   Overcast
2:10 AM 35.6 °F 28.6 °F 35.6 °F 100% 29.85 in 10.0 mi NE 9.2 mph - N/A   Overcast
2:38 AM 37.4 °F 30.8 °F 35.6 °F 93% 29.85 in 9.0 mi NE 9.2 mph - N/A   Overcast
2:56 AM 36.9 °F 30.7 °F 34.9 °F 93% 29.86 in 4.0 mi NE 8.1 mph - N/A   Overcast
3:56 AM 37.4 °F 31.4 °F 35.6 °F 93% 29.84 in 10.0 mi NE 8.1 mph - N/A   Mostly Cloudy
4:56 AM 36.0 °F 29.6 °F 34.0 °F 93% 29.84 in 10.0 mi NE 8.1 mph - N/A   Overcast
5:39 AM 35.6 °F 29.2 °F 35.6 °F 100% 29.83 in 6.0 mi NE 8.1 mph - N/A   Overcast
5:56 AM 36.0 °F 28.0 °F 34.9 °F 96% 29.84 in 4.0 mi NE 11.5 mph - N/A   Overcast
6:13 AM 35.6 °F 28.6 °F 35.6 °F 100% 29.83 in 10.0 mi NE 9.2 mph - N/A   Overcast
6:29 AM 35.6 °F 29.2 °F 35.6 °F 100% 29.82 in 10.0 mi NE 8.1 mph - N/A   Overcast
6:56 AM 35.6 °F 28.6 °F 33.8 °F 93% 29.82 in 10.0 mi NNE 9.2 mph - N/A   Overcast
7:15 AM 35.6 °F 28.6 °F 33.8 °F 93% 29.81 in 10.0 mi NNE 9.2 mph - N/A   Overcast
7:56 AM 34.9 °F 26.6 °F 34.0 °F 97% 29.82 in 6.0 mi NE 11.5 mph - N/A   Overcast
8:11 AM 35.6 °F 28.6 °F 33.8 °F 93% 29.81 in 2.5 mi NE 9.2 mph - N/A   Overcast
8:16 AM 33.8 °F 27.7 °F 33.8 °F 100% 29.81 in 6.0 mi NE 6.9 mph - N/A   Mostly Cloudy
8:29 AM 33.8 °F 27.0 °F 32.0 °F 93% 29.81 in 10.0 mi NE 8.1 mph - N/A   Mostly Cloudy
8:56 AM 34.0 °F 26.0 °F 32.9 °F 96% 29.82 in 10.0 mi NE 10.4 mph - N/A   Overcast
9:08 AM 33.8 °F 25.8 °F 32.0 °F 93% 29.81 in 10.0 mi NE 10.4 mph - N/A   Mostly Cloudy
9:17 AM 33.8 °F 24.8 °F 32.0 °F 93% 29.81 in 5.0 mi NE 12.7 mph - N/A   Overcast
9:22 AM 33.8 °F 24.8 °F 32.0 °F 93% 29.81 in 2.0 mi NE 12.7 mph - N/A   Overcast
9:29 AM 33.8 °F 24.8 °F 32.0 °F 93% 29.80 in 1.5 mi NE 12.7 mph - N/A   Overcast
9:46 AM 33.8 °F 24.8 °F 32.0 °F 93% 29.80 in 1.2 mi NE 12.7 mph - N/A   Overcast
9:56 AM 32.9 °F 23.2 °F 32.0 °F 96% 29.82 in 7.0 mi NE 13.8 mph - N/A   Overcast
10:24 AM 33.8 °F 25.3 °F 32.0 °F 93% 29.80 in 2.5 mi NE 11.5 mph - N/A   Overcast
10:31 AM 33.8 °F 24.3 °F 32.0 °F 93% 29.80 in 8.0 mi NE 13.8 mph - N/A   Overcast
10:43 AM 33.8 °F 24.8 °F 32.0 °F 93% 29.80 in 10.0 mi NE 12.7 mph - N/A   Overcast
10:56 AM 34.0 °F 25.0 °F 32.0 °F 92% 29.81 in 10.0 mi NE 12.7 mph - N/A   Overcast
11:46 AM 35.6 °F 27.1 °F 32.0 °F 87% 29.79 in 9.0 mi ENE 12.7 mph - N/A   Overcast
11:56 AM 34.9 °F 26.2 °F 32.0 °F 89% 29.80 in 10.0 mi ENE 12.7 mph - N/A   Overcast
12:56 PM 37.9 °F 30.0 °F 32.9 °F 82% 29.79 in 10.0 mi ENE 12.7 mph - N/A   Overcast
1:13 PM 37.4 °F 29.3 °F 32.0 °F 81% 29.78 in 10.0 mi ENE 12.7 mph - N/A   Overcast
1:56 PM 36.9 °F 28.7 °F 32.9 °F 86% 29.78 in 10.0 mi ENE 12.7 mph - N/A   Overcast
2:56 PM 38.8 °F 30.4 °F 32.9 °F 79% 29.78 in 10.0 mi ENE 15.0 mph - N/A   Overcast
3:56 PM 38.8 °F 31.2 °F 34.0 °F 83% 29.77 in 10.0 mi ENE 12.7 mph - N/A   Overcast
4:56 PM 39.9 °F 32.1 °F 34.0 °F 79% 29.77 in 10.0 mi East 13.8 mph - N/A   Overcast
5:56 PM 41.0 °F 33.9 °F 34.9 °F 79% 29.76 in 10.0 mi East 12.7 mph - N/A   Overcast
6:56 PM 41.0 °F 33.1 °F 34.9 °F 79% 29.76 in 10.0 mi ENE 15.0 mph - N/A   Overcast
7:44 PM 42.8 °F 36.2 °F 35.6 °F 76% 29.74 in 10.0 mi ENE 12.7 mph - N/A   Scattered Clouds
7:56 PM 41.9 °F 36.9 °F 36.0 °F 79% 29.75 in 10.0 mi ENE 8.1 mph - N/A   Partly Cloudy
8:56 PM 41.9 °F 35.9 °F 36.0 °F 79% 29.75 in 10.0 mi ENE 10.4 mph - N/A   Clear
9:56 PM 36.9 °F 30.7 °F 34.9 °F 93% 29.74 in 10.0 mi NE 8.1 mph - N/A   Clear
10:56 PM 34.9 °F 28.3 °F 32.9 °F 92% 29.75 in 10.0 mi NE 8.1 mph - N/A   Clear
11:56 PM 32.9 °F 25.9 °F 32.0 °F 96% 29.75 in 10.0 mi NE 8.1 mph - N/A   Clear